TimeMST,TemperatureF,Dew PointF,Humidity,Sea Level PressureIn,VisibilityMPH,Wind Direction,Wind SpeedMPH,Gust SpeedMPH,PrecipitationIn,Events,Conditions,WindDirDegrees,DateUTC
12:53 AM,-11.9,-16.1,82,30.23,10.0,Calm,Calm,-,N/A,,Clear,0,2014-02-07 07:53:00
1:53 AM,-9.0,-13.0,83,30.20,10.0,Calm,Calm,-,N/A,,Clear,0,2014-02-07 08:53:00
2:53 AM,-9.9,-13.0,86,30.19,9.0,NW,4.6,-,N/A,,Clear,320,2014-02-07 09:53:00
3:53 AM,-9.9,-13.0,86,30.19,10.0,WNW,6.9,-,N/A,,Clear,300,2014-02-07 10:53:00
4:53 AM,-11.0,-14.1,86,30.19,8.0,WNW,8.1,-,N/A,,Partly Cloudy,290,2014-02-07 11:53:00
5:53 AM,-13.0,-17.0,82,30.21,8.0,West,10.4,-,N/A,,Clear,280,2014-02-07 12:53:00
6:53 AM,-14.1,-18.0,82,30.20,10.0,West,10.4,-,N/A,,Clear,260,2014-02-07 13:53:00
7:53 AM,-9.9,-13.0,86,30.19,8.0,West,12.7,-,N/A,,Clear,260,2014-02-07 14:53:00
8:53 AM,-5.1,-9.0,83,30.18,10.0,West,9.2,-,N/A,,Partly Cloudy,260,2014-02-07 15:53:00
9:53 AM,-2.9,-8.0,79,30.16,10.0,WSW,11.5,-,N/A,,Clear,250,2014-02-07 16:53:00
10:53 AM,-0.0,-6.0,76,30.15,10.0,WSW,12.7,-,N/A,,Clear,240,2014-02-07 17:53:00
11:53 AM,3.9,-2.9,73,30.11,10.0,WSW,15.0,-,N/A,,Clear,250,2014-02-07 18:53:00
12:53 PM,8.1,1.0,73,30.05,10.0,WSW,9.2,-,N/A,,Clear,250,2014-02-07 19:53:00
1:53 PM,12.9,5.0,71,30.01,10.0,WSW,6.9,-,N/A,,Clear,250,2014-02-07 20:53:00
2:53 PM,17.1,8.1,68,29.98,10.0,SSW,9.2,-,N/A,,Clear,210,2014-02-07 21:53:00
3:53 PM,17.1,9.0,71,30.00,10.0,NW,3.5,-,N/A,,Clear,320,2014-02-07 22:53:00
4:53 PM,12.0,6.1,77,30.05,10.0,West,12.7,-,N/A,,Overcast,270,2014-02-07 23:53:00
5:53 PM,9.0,1.9,73,30.09,10.0,SSW,6.9,-,N/A,,Scattered Clouds,210,2014-02-08 00:53:00
6:53 PM,9.0,1.0,70,30.09,10.0,SW,12.7,-,N/A,,Clear,220,2014-02-08 01:53:00
7:53 PM,15.1,5.0,64,30.06,10.0,WSW,13.8,-,N/A,,Clear,240,2014-02-08 02:53:00
8:53 PM,17.1,9.0,71,30.03,10.0,WSW,11.5,-,N/A,,Clear,240,2014-02-08 03:53:00
9:53 PM,18.0,10.0,71,30.02,10.0,West,13.8,-,N/A,,Clear,260,2014-02-08 04:53:00
10:53 PM,21.9,12.9,68,30.00,10.0,SW,15.0,-,N/A,,Scattered Clouds,230,2014-02-08 05:53:00
11:53 PM,23.0,14.0,68,29.99,10.0,WSW,15.0,-,N/A,,Partly Cloudy,240,2014-02-08 06:53:00